Regional Weather Roundup
Issued by NWS Cleveland, OH

Home | Current Version | Previous Version | Graphics & Text | Print | Product List | Glossary On
Versions: 1 2 3 4 5 6 7 8 9 10 11 12 13 14 15 16 17 18 19 20 21 22 23 24 25 26 27 28 29 30 31 32 33 34 35 36 37 38 39 40 41 42 43 44 45 46 47 48 49 50
000
ASUS41 KCLE 211000
RWRCLE
OHIO REGIONAL WEATHER ROUNDUP
NATIONAL WEATHER SERVICE WILMINGTON, OH
600 AM EDT THU SEP 21 2017

NOTE: "FAIR" INDICATES FEW OR NO CLOUDS BELOW 12,000 FEET WITH NO
SIGNIFICANT WEATHER AND/OR OBSTRUCTIONS TO VISIBILITY.

OHZ001>008-015>018-024>027-034-035-043-044-211100-
   NORTHWEST OHIO

CITY           SKY/WX    TMP DP  RH WIND       PRES   REMARKS
DEFIANCE       MOCLDY    68  65  90 CALM      30.05R
FINDLAY        MOCLDY    69  64  84 SE5       30.06R
TOLEDO EXPRESS FAIR      65  65 100 CALM      30.05R
TOLEDO EXEC    MOCLDY    68  66  93 S3        30.07R
LIMA           FAIR      68  67  96 S8        30.07S
$$

OHZ009>014-019>023-028>033-038-089-211100-
   NORTHEAST OHIO

CITY           SKY/WX    TMP DP  RH WIND       PRES   REMARKS
CLE-HOPKINS    FAIR      66  62  87 CALM      30.09S
CLE-LAKEFRONT  FAIR      69  63  81 S5        30.06S
CUY CO. ARPT   NOT AVBL
LORAIN-ELYRIA  FAIR      60  56  86 CALM      30.08S FOG
ASHTABULA      FAIR      59  59 100 E3        30.10S
AKRON-CANTON   FAIR      66  62  87 CALM      30.10S
WOOSTER        NOT AVBL
MANSFIELD      FAIR      63  63 100 S3        30.10S
YOUNGSTOWN     FAIR      61  61 100 E3        30.10R
$$

OHZ042-051>053-060>062-070>072-077>081-211100-
  SOUTHWEST OHIO

CITY           SKY/WX    TMP DP  RH WIND       PRES   REMARKS
CINC-COVINGTON FAIR      68  68 100 CALM      30.07R
CINC-LUNKEN    FOG       66  66 100 CALM      30.07R VSB 1/4
HAMILTON       FAIR      63  63 100 CALM      30.08R FOG
DAYTON         NOT AVBL
WRIGHT-PAT AFB NOT AVBL
DAYTON GENERAL MOCLDY    66  63  90 CALM      30.08R
WILMINGTON     FOG       62  62 100 CALM      30.09R VSB 1
$$

OHZ036-037-039>041-045>050-054>059-063>069-073>076-082>088-211100-
  CENTRAL AND SOUTHEAST OHIO

CITY           SKY/WX    TMP DP  RH WIND       PRES   REMARKS
COLUMBUS       FAIR      65  65 100 CALM      30.08S
OSU AIRPORT    FAIR      63  63 100 CALM      30.09R FOG
BOLTON FIELD   FOG       61  61 100 CALM      30.09S VSB 1/2
RICKENBACK AFB NOT AVBL
NEWARK         FOG       61  60  97 CALM      30.09S VSB 3/4
MARION         FAIR      64  62  93 CALM      30.09S FOG
LANCASTER      FOG       59  59 100 CALM      30.09S VSB 3/4
ZANESVILLE     FAIR      62  60  93 CALM      30.10R FOG
NEW PHILLY     FOG       63  63 100 CALM      30.11R VSB 1/4
$$



USA.gov is the U.S. government's official web portal to all federal, state and local government web resources and services.